Tracking 19847 objects as of 17-Sep-2019
HD Live streaming from Space Station
objects crossing your sky now

SL-14 DEB

Track SL-14 DEB now!
10-day predictions


NORAD ID: 39976
Int'l Code: 1987-068DC
Perigee: 902.6 km
Apogee: 916.9 km
Inclination: 82.6 °
Period: 103.0 minutes
Semi major axis: 7280 km
RCS: 0.0056 m2 (small)
Launch date: August 18, 1987
Source: Commonwealth of Independent States (former USSR) (CIS)
Launch site: PLESETSK MISSILE AND SPACE COMPLEX (PKMTR)

Note: This is SATELLITE DEBRIS
aabbcc
Your satellite tracking list
Your tracking list is empty




NASA's NSSDC Master Catalog

Two Line Element Set (TLE):
1 39976U 87068DC  19257.62549503  .00000324  00000-0  21953-3 0  9993
2 39976  82.5508   9.7148 0009817 243.8662 116.1496 13.97449680787460
Source of the keplerian elements: AFSPC